Aérodrome :
LOGIN :

S'inscrire | Disclaimer

   EN    FR    IT 

 










Légende :    VFR   VFR Marginal   IFR   IFR Intensif   IFR Très Intensif
Visi : 
Plafond : 
>= 8 km
>= 3000ft
5 à 8 km
1000 à 3000 ft
1500m à 5 km
500 à 1000 ft
800 à 1500m
200 à 500 ft
< 800m
< 200 ft
Symboles :   Orages  Brouillard  Fortes neiges  Fortes précipitations  Vent > 20 kt
SIGMETs :   Divers  Orages  Givrage  Turbulence  Onde Orograph.  Cendres Volcan.







- Altitude de l'aérodrome : 25 ft
- Code IATA : QCY


EGXC - RAF Coningsby

DERNIER METAR :
  • 230450Z 33009KT 4500 BR BKN004 BKN028 M00/M01 Q0998 YLO2

METARs EXPIRÉS :
  • 230350Z 28006KT 5000 BR BKN023 M00/M01 Q0997 WHT
  • 230250Z 29005KT 5000 BR BKN018 00/M01 Q0997 WHT

TAF AMD TAF EGXC
Valide du 23 à 05h jusqu'au 23 à 21h UTC


230500Z 2305/2321 32007KT 5000 BR FEW008
PROB40 2305/2312 SCT008
PROB30 2305/2310 2000 BKN004
BECMG 2309/2312 9999 NSW
PROB40 2318/2321 4000 BR
Pas de NOTAMs connus pour ce terrain.



MET'MAP, la Météo Aéronautique d'un coup d'oeil ! - Copyright ORBIFLY Décembre 2007 - Disclaimer

ORBIFLY MET'MAP TEAM :

Programmation & Développement : Alexandra Zaïnal
Conception & Développement : Baudouin d'Aumeries
Co-Programmation & Développement : Marc-Olivier Méhu
Soutien technique & logistique : Manuel Goepfert

Contact : metmap@orbifly.com




SOURCES & CREDITS :

   NOAA